YMA7608 KRNO-KPDX

Flight info

Callsign YMA7608
Flight time 1h 5m
Altitude 32000
Route KRNO HALLE WNDEL J92 LMT GALLO KPDX
Aircraft B738/M-VGDW/C

Departure

Time 2026-05-07 08:25
Airport Reno Tahoe International Airport (KRNO)

Arrival

Time 2026-05-07 09:31
Airport Portland International Airport (KPDX)
Time Latitude Longitude Altitude Speed Heading
2026-05-07 07:43 39.50447 -119.77232 4416 ft 0 kts 320°
2026-05-07 08:15 39.50440 -119.77226 4421 ft 2 kts 320°
2026-05-07 08:15 39.50429 -119.77214 4421 ft 0 kts 320°
2026-05-07 08:15 39.50421 -119.77204 4421 ft 2 kts 296°
2026-05-07 08:15 39.50418 -119.77185 4420 ft 2 kts 264°
2026-05-07 08:16 39.50422 -119.77166 4420 ft 2 kts 232°
2026-05-07 08:16 39.50435 -119.77154 4420 ft 2 kts 199°
2026-05-07 08:16 39.50443 -119.77151 4420 ft 1 kts 180°
2026-05-07 08:16 39.50450 -119.77151 4420 ft 0 kts 179°
2026-05-07 08:18 39.50449 -119.77151 4421 ft 0 kts 179°
2026-05-07 08:18 39.50400 -119.77151 4421 ft 12 kts 180°
2026-05-07 08:19 39.50319 -119.77151 4420 ft 11 kts 180°
2026-05-07 08:19 39.50241 -119.77152 4419 ft 12 kts 180°
2026-05-07 08:19 39.50145 -119.77152 4417 ft 15 kts 180°
2026-05-07 08:19 39.50031 -119.77152 4416 ft 16 kts 181°
2026-05-07 08:20 39.49917 -119.77152 4416 ft 16 kts 179°
2026-05-07 08:20 39.49807 -119.77153 4416 ft 15 kts 180°
2026-05-07 08:20 39.49703 -119.77153 4416 ft 14 kts 180°
2026-05-07 08:20 39.49604 -119.77152 4417 ft 13 kts 180°
2026-05-07 08:21 39.49508 -119.77154 4417 ft 13 kts 180°
2026-05-07 08:21 39.49418 -119.77155 4418 ft 12 kts 179°
2026-05-07 08:21 39.49329 -119.77155 4418 ft 13 kts 180°
2026-05-07 08:21 39.49233 -119.77155 4419 ft 14 kts 179°
2026-05-07 08:22 39.49125 -119.77154 4420 ft 16 kts 180°
2026-05-07 08:22 39.49009 -119.77158 4420 ft 17 kts 180°
2026-05-07 08:22 39.48880 -119.77155 4420 ft 19 kts 180°
2026-05-07 08:22 39.48751 -119.77156 4422 ft 17 kts 180°
2026-05-07 08:23 39.48641 -119.77155 4424 ft 15 kts 179°
2026-05-07 08:23 39.48537 -119.77155 4426 ft 14 kts 180°
2026-05-07 08:23 39.48447 -119.77156 4428 ft 11 kts 180°
2026-05-07 08:23 39.48386 -119.77123 4429 ft 8 kts 119°
2026-05-07 08:24 39.48379 -119.77047 4429 ft 8 kts 91°
2026-05-07 08:24 39.48391 -119.76958 4428 ft 13 kts 52°
2026-05-07 08:24 39.48533 -119.76932 4426 ft 46 kts 360°
2026-05-07 08:24 39.49179 -119.76929 4419 ft 136 kts
2026-05-07 08:25 39.50342 -119.76913 4659 ft 186 kts
2026-05-07 08:25 39.51611 -119.76904 5337 ft 190 kts 357°
2026-05-07 08:25 39.53019 -119.76874 5916 ft 221 kts
2026-05-07 08:25 39.54667 -119.76809 6494 ft 255 kts
2026-05-07 08:26 39.58495 -119.76666 7854 ft 281 kts
2026-05-07 08:26 39.60442 -119.76601 8544 ft 277 kts
2026-05-07 08:26 39.62363 -119.76538 9236 ft 278 kts
2026-05-07 08:27 39.64294 -119.76486 9923 ft 281 kts 360°
2026-05-07 08:27 39.66197 -119.77180 10639 ft 297 kts 334°
2026-05-07 08:27 39.68082 -119.78471 11390 ft 321 kts 334°
2026-05-07 08:27 39.70138 -119.79909 12116 ft 345 kts 334°
2026-05-07 08:28 39.72255 -119.81374 12795 ft 348 kts 335°
2026-05-07 08:28 39.74408 -119.82847 13454 ft 349 kts 334°
2026-05-07 08:28 39.76554 -119.84325 14097 ft 351 kts 335°
2026-05-07 08:28 39.78687 -119.85804 14718 ft 353 kts 335°
2026-05-07 08:29 39.80867 -119.87318 15341 ft 357 kts 335°
2026-05-07 08:29 39.83065 -119.88844 15970 ft 359 kts 335°
2026-05-07 08:29 39.85264 -119.90378 16581 ft 361 kts 335°
2026-05-07 08:29 39.87484 -119.91933 17155 ft 364 kts 335°
2026-05-07 08:30 39.89728 -119.93508 17675 ft 367 kts 335°
2026-05-07 08:30 39.91976 -119.95096 18168 ft 369 kts 334°
2026-05-07 08:30 39.94217 -119.96741 18653 ft 373 kts 333°
2026-05-07 08:30 39.96481 -119.98469 19159 ft 376 kts 333°
2026-05-07 08:31 39.98738 -120.00188 19628 ft 377 kts 333°
2026-05-07 08:31 40.00995 -120.01899 20095 ft 380 kts 333°
2026-05-07 08:31 40.03287 -120.03626 20564 ft 382 kts 333°
2026-05-07 08:31 40.05613 -120.05378 21026 ft 385 kts 332°
2026-05-07 08:32 40.07915 -120.07168 21487 ft 387 kts 332°
2026-05-07 08:32 40.10208 -120.08943 21933 ft 391 kts 332°
2026-05-07 08:32 40.12257 -120.10529 22340 ft 393 kts 332°
2026-05-07 08:32 40.14593 -120.12330 22782 ft 394 kts 332°
2026-05-07 08:33 40.16994 -120.14176 23222 ft 397 kts 332°
2026-05-07 08:33 40.19368 -120.15994 23655 ft 399 kts 332°
2026-05-07 08:33 40.21769 -120.17829 24082 ft 402 kts 332°
2026-05-07 08:33 40.24198 -120.19688 24513 ft 403 kts 332°
2026-05-07 08:34 40.26414 -120.21374 24877 ft 405 kts 332°
2026-05-07 08:34 40.28816 -120.23201 25294 ft 406 kts 332°
2026-05-07 08:34 40.31253 -120.25107 25696 ft 409 kts 331°
2026-05-07 08:34 40.33667 -120.27015 26117 ft 412 kts 331°
2026-05-07 08:35 40.36140 -120.28970 26516 ft 413 kts 331°
2026-05-07 08:35 40.38589 -120.30934 26918 ft 416 kts 330°
2026-05-07 08:35 40.41045 -120.32934 27301 ft 417 kts 333°
2026-05-07 08:35 40.43574 -120.34849 27700 ft 421 kts 332°
2026-05-07 08:36 40.46134 -120.36790 28084 ft 422 kts 332°
2026-05-07 08:36 40.48661 -120.38703 28486 ft 424 kts 332°
2026-05-07 08:36 40.51232 -120.40650 28885 ft 426 kts 332°
2026-05-07 08:36 40.53763 -120.42645 29262 ft 429 kts 331°
2026-05-07 08:37 40.56334 -120.44670 29646 ft 430 kts 331°
2026-05-07 08:37 40.58884 -120.46674 30028 ft 432 kts 331°
2026-05-07 08:37 40.61480 -120.48715 30392 ft 435 kts 331°
2026-05-07 08:37 40.64079 -120.50758 30756 ft 438 kts 331°
2026-05-07 08:38 40.66696 -120.52808 31122 ft 440 kts 331°
2026-05-07 08:38 40.69355 -120.54890 31500 ft 441 kts 331°
2026-05-07 08:38 40.71971 -120.56930 31850 ft 444 kts 331°
2026-05-07 08:38 40.74654 -120.59024 31977 ft 450 kts 331°
2026-05-07 08:39 40.77364 -120.61135 32188 ft 446 kts 331°
2026-05-07 08:39 40.80042 -120.63213 32285 ft 450 kts 332°
2026-05-07 08:39 40.85392 -120.67451 32280 ft 450 kts 330°
2026-05-07 08:40 40.90724 -120.71764 32277 ft 450 kts 330°
2026-05-07 08:40 40.96114 -120.75957 32281 ft 450 kts 331°
2026-05-07 08:41 41.01501 -120.80254 32272 ft 451 kts 330°
2026-05-07 08:41 41.06831 -120.84528 32275 ft 451 kts 330°
2026-05-07 08:42 41.12204 -120.88850 32279 ft 450 kts 330°
2026-05-07 08:42 41.17540 -120.93134 32271 ft 449 kts 330°
2026-05-07 08:43 41.22875 -120.97380 32269 ft 450 kts 330°
2026-05-07 08:43 41.28258 -121.01668 32269 ft 451 kts 330°
2026-05-07 08:44 41.33620 -121.05943 32262 ft 450 kts 330°
2026-05-07 08:44 41.38996 -121.10203 32249 ft 448 kts 330°
2026-05-07 08:45 41.44335 -121.14485 32245 ft 448 kts 329°
2026-05-07 08:45 41.49640 -121.18848 32253 ft 448 kts 329°
2026-05-07 08:46 41.54953 -121.23209 32240 ft 448 kts 329°
2026-05-07 08:46 41.60262 -121.27535 32237 ft 448 kts 330°
2026-05-07 08:47 41.65621 -121.31770 32244 ft 449 kts 329°
2026-05-07 08:47 41.70959 -121.36101 32237 ft 448 kts 329°
2026-05-07 08:48 41.76303 -121.40442 32240 ft 448 kts 329°
2026-05-07 08:48 41.81640 -121.44774 32235 ft 449 kts 329°
2026-05-07 08:49 41.86966 -121.49096 32225 ft 448 kts 329°
2026-05-07 08:49 41.92241 -121.53511 32216 ft 449 kts 329°
2026-05-07 08:50 41.97564 -121.57955 32221 ft 449 kts 329°
2026-05-07 08:50 42.02883 -121.62283 32224 ft 449 kts 330°
2026-05-07 08:51 42.08192 -121.66650 32220 ft 447 kts 328°
2026-05-07 08:51 42.13504 -121.71091 32229 ft 449 kts 327°
2026-05-07 08:52 42.19008 -121.74948 32245 ft 449 kts 338°
2026-05-07 08:52 42.24799 -121.78018 32223 ft 448 kts 337°
2026-05-07 08:53 42.30623 -121.81181 32221 ft 448 kts 338°
2026-05-07 08:53 42.36373 -121.84438 32224 ft 448 kts 336°
2026-05-07 08:54 42.42095 -121.87682 32230 ft 448 kts 336°
2026-05-07 08:54 42.47850 -121.90932 32248 ft 449 kts 336°
2026-05-07 08:55 42.53601 -121.94161 32246 ft 447 kts 336°
2026-05-07 08:55 42.59318 -121.97450 32250 ft 448 kts 336°
2026-05-07 08:56 42.65061 -122.00835 32243 ft 448 kts 336°
2026-05-07 08:56 42.70812 -122.04069 32259 ft 449 kts 336°
2026-05-07 08:57 42.76332 -122.07270 32263 ft 449 kts 336°
2026-05-07 08:57 42.81092 -122.10048 32267 ft 448 kts 336°
2026-05-07 08:58 42.86829 -122.13395 32265 ft 448 kts 336°
2026-05-07 08:58 42.92559 -122.16722 32260 ft 448 kts 341°
2026-05-07 08:59 42.98725 -122.18263 32274 ft 451 kts 348°
2026-05-07 08:59 43.04875 -122.19801 32267 ft 451 kts 348°
2026-05-07 09:00 43.11037 -122.21443 32264 ft 450 kts 347°
2026-05-07 09:00 43.17171 -122.23123 32245 ft 450 kts 347°
2026-05-07 09:01 43.23329 -122.24813 32242 ft 450 kts 347°
2026-05-07 09:01 43.29475 -122.26481 32237 ft 448 kts 347°
2026-05-07 09:02 43.35592 -122.28132 32227 ft 448 kts 347°
2026-05-07 09:02 43.41705 -122.29776 32225 ft 447 kts 347°
2026-05-07 09:03 43.47814 -122.31406 32203 ft 448 kts 347°
2026-05-07 09:03 43.53912 -122.33070 32209 ft 447 kts 346°
2026-05-07 09:04 43.60032 -122.34840 32198 ft 448 kts 347°
2026-05-07 09:04 43.66129 -122.36468 32185 ft 448 kts 347°
2026-05-07 09:05 43.72281 -122.38117 32179 ft 448 kts 346°
2026-05-07 09:05 43.78367 -122.39887 32165 ft 446 kts 346°
2026-05-07 09:06 43.84444 -122.41639 32163 ft 446 kts 346°
2026-05-07 09:06 43.90519 -122.43309 32152 ft 447 kts 347°
2026-05-07 09:07 43.96624 -122.44951 32163 ft 446 kts 346°
2026-05-07 09:07 44.02748 -122.46694 32151 ft 447 kts 346°
2026-05-07 09:08 44.08870 -122.48440 32146 ft 446 kts 346°
2026-05-07 09:08 44.14907 -122.50156 32149 ft 445 kts 346°
2026-05-07 09:09 44.20989 -122.51886 32156 ft 446 kts 347°
2026-05-07 09:09 44.24039 -122.52742 31285 ft 454 kts 346°
2026-05-07 09:09 44.27089 -122.53619 30022 ft 450 kts 347°
2026-05-07 09:10 44.30068 -122.54479 28974 ft 424 kts 346°
2026-05-07 09:10 44.32932 -122.55294 28657 ft 418 kts 347°
2026-05-07 09:10 44.35811 -122.56112 27997 ft 424 kts 347°
2026-05-07 09:10 44.38683 -122.56930 27119 ft 420 kts 346°
2026-05-07 09:11 44.41498 -122.57728 26568 ft 411 kts 346°
2026-05-07 09:11 44.44266 -122.58501 26029 ft 409 kts 346°
2026-05-07 09:11 44.47072 -122.59279 25479 ft 407 kts 347°
2026-05-07 09:11 44.49831 -122.60042 24940 ft 406 kts 346°
2026-05-07 09:12 44.52610 -122.60808 24120 ft 406 kts 347°
2026-05-07 09:12 44.55337 -122.61548 23532 ft 398 kts 347°
2026-05-07 09:12 44.58027 -122.62291 23006 ft 395 kts 346°
2026-05-07 09:12 44.60720 -122.63088 22474 ft 395 kts 346°
2026-05-07 09:13 44.63396 -122.63876 21723 ft 397 kts 346°
2026-05-07 09:13 44.66079 -122.64665 21116 ft 388 kts 346°
2026-05-07 09:13 44.68697 -122.65427 20602 ft 386 kts 345°
2026-05-07 09:13 44.71322 -122.66188 19996 ft 389 kts 345°
2026-05-07 09:14 44.73953 -122.66942 19313 ft 382 kts 345°
2026-05-07 09:14 44.76530 -122.67698 18854 ft 365 kts 344°
2026-05-07 09:14 44.78891 -122.68437 18661 ft 346 kts 343°
2026-05-07 09:14 44.81299 -122.68867 18130 ft 354 kts 360°
2026-05-07 09:15 44.83758 -122.68589 17444 ft 355 kts
2026-05-07 09:15 44.86201 -122.68299 16690 ft 355 kts
2026-05-07 09:15 44.88628 -122.68015 16145 ft 348 kts
2026-05-07 09:15 44.90989 -122.67742 15618 ft 327 kts
2026-05-07 09:16 44.93180 -122.67497 15209 ft 315 kts
2026-05-07 09:16 44.95400 -122.67278 14625 ft 315 kts
2026-05-07 09:16 44.97579 -122.67075 13946 ft 318 kts
2026-05-07 09:16 44.99766 -122.66874 13476 ft 315 kts
2026-05-07 09:17 45.01933 -122.66652 12919 ft 314 kts
2026-05-07 09:17 45.04103 -122.66409 12233 ft 313 kts
2026-05-07 09:17 45.06278 -122.66170 11739 ft 308 kts
2026-05-07 09:17 45.08334 -122.65949 11240 ft 293 kts
2026-05-07 09:18 45.10367 -122.65723 10812 ft 289 kts
2026-05-07 09:18 45.12358 -122.65498 10583 ft 283 kts
2026-05-07 09:18 45.14308 -122.65283 10298 ft 284 kts
2026-05-07 09:18 45.16286 -122.65070 10002 ft 283 kts
2026-05-07 09:19 45.18109 -122.64868 9730 ft 281 kts
2026-05-07 09:19 45.20060 -122.64670 9429 ft 279 kts
2026-05-07 09:19 45.21976 -122.64498 9143 ft 278 kts
2026-05-07 09:19 45.23894 -122.64337 8843 ft 276 kts
2026-05-07 09:20 45.25743 -122.63525 8563 ft 283 kts 27°
2026-05-07 09:20 45.27431 -122.62054 8246 ft 283 kts 28°
2026-05-07 09:20 45.29081 -122.60601 7945 ft 281 kts 28°
2026-05-07 09:20 45.30734 -122.59135 7641 ft 279 kts 29°
2026-05-07 09:21 45.32315 -122.57691 7424 ft 258 kts 29°
2026-05-07 09:21 45.33818 -122.56320 7151 ft 256 kts 29°
2026-05-07 09:21 45.35308 -122.54960 6858 ft 255 kts 29°
2026-05-07 09:21 45.36787 -122.53608 6604 ft 252 kts 28°
2026-05-07 09:22 45.38263 -122.52309 6265 ft 252 kts 28°
2026-05-07 09:22 45.39722 -122.50993 5978 ft 241 kts 29°
2026-05-07 09:22 45.41072 -122.49758 6024 ft 226 kts 29°
2026-05-07 09:22 45.42407 -122.48543 6002 ft 226 kts 31°
2026-05-07 09:23 45.43290 -122.46716 6014 ft 233 kts 75°
2026-05-07 09:23 45.43111 -122.44453 6064 ft 236 kts 117°
2026-05-07 09:23 45.42270 -122.42394 5747 ft 243 kts 106°
2026-05-07 09:23 45.41826 -122.40121 5286 ft 240 kts 104°
2026-05-07 09:24 45.41327 -122.37885 5003 ft 229 kts 114°
2026-05-07 09:24 45.40810 -122.35797 5005 ft 228 kts 97°
2026-05-07 09:24 45.40818 -122.33545 4981 ft 227 kts 70°
2026-05-07 09:24 45.41474 -122.31521 4991 ft 225 kts 50°
2026-05-07 09:25 45.42672 -122.30176 5022 ft 221 kts 30°
2026-05-07 09:25 45.44121 -122.29644 5008 ft 214 kts 358°
2026-05-07 09:25 45.45597 -122.29797 4807 ft 212 kts 338°
2026-05-07 09:25 45.46791 -122.30924 4550 ft 202 kts 322°
2026-05-07 09:26 45.47738 -122.32122 4301 ft 203 kts 305°
2026-05-07 09:26 45.48462 -122.33833 4092 ft 202 kts 300°
2026-05-07 09:26 45.49161 -122.35580 3843 ft 203 kts 300°
2026-05-07 09:26 45.49863 -122.37340 3615 ft 202 kts 300°
2026-05-07 09:27 45.50544 -122.39065 3365 ft 199 kts 298°
2026-05-07 09:27 45.51203 -122.40788 3104 ft 193 kts 298°
2026-05-07 09:27 45.52478 -122.44025 2616 ft 181 kts 300°
2026-05-07 09:28 45.53091 -122.45563 2366 ft 176 kts 298°
2026-05-07 09:28 45.53670 -122.47058 2146 ft 169 kts 299°
2026-05-07 09:28 45.54222 -122.48495 1879 ft 164 kts 298°
2026-05-07 09:28 45.54761 -122.49887 1636 ft 158 kts 299°
2026-05-07 09:29 45.55284 -122.51238 1424 ft 153 kts 298°
2026-05-07 09:29 45.55790 -122.52549 1155 ft 149 kts 299°
2026-05-07 09:29 45.56282 -122.53825 911 ft 145 kts 299°
2026-05-07 09:29 45.56763 -122.55070 672 ft 143 kts 299°
2026-05-07 09:30 45.57246 -122.56319 426 ft 143 kts 299°
2026-05-07 09:30 45.57729 -122.57570 182 ft 143 kts 299°
2026-05-07 09:30 45.58205 -122.58783 28 ft 138 kts 298°
2026-05-07 09:30 45.58535 -122.59643 22 ft 62 kts 299°
2026-05-07 09:31 45.58664 -122.59962 22 ft 22 kts 299°
2026-05-07 09:31 45.58747 -122.60134 22 ft 20 kts 323°
2026-05-07 09:31 45.58859 -122.60222 22 ft 6 kts 337°
2026-05-07 09:31 45.58883 -122.60232 23 ft 0 kts 350°
2026-05-07 09:32 45.58895 -122.60233 23 ft 5 kts 359°
2026-05-07 09:32 45.58930 -122.60220 23 ft 5 kts 32°
2026-05-07 09:32 45.58946 -122.60147 24 ft 9 kts 112°
2026-05-07 09:32 45.58912 -122.60066 23 ft 9 kts 121°
2026-05-07 09:33 45.58882 -122.59979 23 ft 8 kts 98°
2026-05-07 09:33 45.58913 -122.59929 25 ft 5 kts 32°
2026-05-07 09:33 45.58940 -122.59897 25 ft 4 kts 39°
2026-05-07 09:33 45.58943 -122.59893 25 ft 0 kts 39°